Edinburgh Airport, United Kingdom

6:35 AM GMT on November 23, 2017 (GMT +0000)
Edinburgh Airport

Weather History for EGPH - November, 2010

Change the Weather History Date:

Thursday, November 4, 2010

  Actual Average Record
Temperature  
Mean Temperature 50 °F -  
Max Temperature 57 °F 47 °F 59 °F (2003)
Min Temperature 44 °F 36 °F 26 °F (2012)
Degree Days  
Heating Degree Days 14    
Moisture  
Dew Point 47 °F    
Average Humidity 93    
Maximum Humidity 100    
Minimum Humidity 82    
Precipitation  
Precipitation 0.00 in 0.08 in - ()
Sea Level Pressure  
Sea Level Pressure 29.66 in    
Wind  
Wind Speed 6 mph ()    
Max Wind Speed 20 mph    
Max Gust Speed -    
Visibility 5.8 miles    
Events Rain    
Averages and records for this station are not official NWS values.
T = Trace of Precipitation, MM = Missing Value Source: Averaged Metar Reports

Daily Weather History Graph

Daily Weather History Graph

Search for Another Location

Airport or City:

Trip Planner

Search our weather history database for the weather conditions in past years. The results will help you decide how hot, cold, wet, or windy it might be!

Date:

Astronomy

Nov. 04, 2010 Rise Set
Actual Time 7:26 AM GMT 4:26 PM GMT
Civil Twilight 6:46 AM GMT 5:06 PM GMT
Nautical Twilight 6:01 AM GMT 5:51 PM GMT
Astronomical Twilight 5:18 AM GMT 6:34 PM GMT
Moon 5:08 AM GMT (11/4) 3:08 PM GMT (11/4)
Length of Visible Light 10h 20m
Length of Day
9h 00m
Waning Crescent, 4% of the Moon is Illuminated
Nov 4
Waning Crescent
Nov 6
New
Nov 13
First Quarter
Nov 21
Full
Nov 28
Last Quarter

Hourly Weather History & Observations

Time (GMT) Temp. Windchill Dew Point Humidity Pressure Visibility Wind Dir Wind Speed Gust Speed Precip Events Conditions
12:20 AM 46.4 °F 42.9 °F 44.6 °F 93% 29.68 in 6.2 mi SSW 6.9 mph - N/A   Light Drizzle
12:50 AM 46.4 °F 44.3 °F 44.6 °F 93% 29.68 in 6.2 mi SW 4.6 mph - N/A Rain Light Rain
1:20 AM 44.6 °F 43.1 °F 44.6 °F 100% 29.68 in 6.2 mi WSW 3.5 mph - N/A Rain Light Rain
1:50 AM 44.6 °F - 44.6 °F 100% 29.65 in 5.0 mi Variable 2.3 mph - N/A Rain Light Rain
2:20 AM 44.6 °F - 44.6 °F 100% 29.65 in 6.2 mi Calm Calm - N/A   Light Drizzle
2:50 AM 44.6 °F - 44.6 °F 100% 29.68 in 6.2 mi Calm Calm - N/A   Drizzle
3:20 AM 44.6 °F - 44.6 °F 100% 29.65 in 6.2 mi Calm Calm - N/A Rain Light Rain
3:50 AM 44.6 °F 42.2 °F 44.6 °F 100% 29.65 in 6.2 mi SSE 4.6 mph - N/A   Drizzle
4:20 AM 44.6 °F 43.1 °F 44.6 °F 100% 29.65 in 6.2 mi South 3.5 mph - N/A   Mostly Cloudy
4:50 AM 44.6 °F - 44.6 °F 100% 29.65 in 6.2 mi South 2.3 mph - N/A   Mostly Cloudy
5:20 AM 44.6 °F - 44.6 °F 100% 29.65 in 6.2 mi Calm Calm - N/A   Overcast
5:50 AM 44.6 °F - 44.6 °F 100% 29.65 in 6.2 mi North 2.3 mph - N/A   Overcast
6:20 AM 44.6 °F - 44.6 °F 100% 29.68 in 6.2 mi Variable 2.3 mph - N/A   Mostly Cloudy
6:50 AM 44.6 °F - 44.6 °F 100% 29.68 in 4.3 mi Calm Calm - N/A   Light Drizzle
7:20 AM 44.6 °F 43.1 °F 44.6 °F 100% 29.65 in 6.2 mi NE 3.5 mph - N/A   Light Drizzle
7:50 AM 44.6 °F - 44.6 °F 100% 29.65 in 6.2 mi NNE 2.3 mph - N/A   Overcast
8:20 AM 46.4 °F 45.2 °F 44.6 °F 93% 29.65 in 6.2 mi NE 3.5 mph - N/A   Mostly Cloudy
8:50 AM 46.4 °F - 46.4 °F 100% 29.65 in 5.6 mi North 2.3 mph - N/A   Overcast
9:20 AM 46.4 °F 45.2 °F 46.4 °F 100% 29.65 in - Variable 3.5 mph - N/A   Overcast
9:50 AM 46.4 °F - 46.4 °F 100% 29.65 in 2.2 mi Variable 2.3 mph - N/A   Drizzle
10:20 AM 48.2 °F - 46.4 °F 93% 29.65 in 3.1 mi SSW 3.5 mph - N/A   Light Drizzle
10:50 AM 48.2 °F - 46.4 °F 93% 29.65 in 5.0 mi Variable 3.5 mph - N/A   Overcast
11:20 AM 48.2 °F - 48.2 °F 100% 29.65 in 4.3 mi Variable 2.3 mph - N/A   Overcast
11:50 AM 48.2 °F - 48.2 °F 100% 29.65 in 5.6 mi Variable 3.5 mph - N/A   Overcast
12:20 PM 55.4 °F - 53.6 °F 94% 29.62 in 6.2 mi West 16.1 mph - N/A   Scattered Clouds
12:50 PM 57.2 °F - 51.8 °F 82% 29.65 in 6.2 mi West 16.1 mph - N/A   Scattered Clouds
1:20 PM 57.2 °F - 51.8 °F 82% 29.65 in 6.2 mi WSW 16.1 mph - N/A   Scattered Clouds
1:50 PM 55.4 °F - 51.8 °F 88% 29.65 in 6.2 mi WSW 16.1 mph - N/A   Light Drizzle
2:20 PM 55.4 °F - 50.0 °F 82% 29.65 in 6.2 mi WSW 17.3 mph - N/A Rain Light Rain
2:50 PM 53.6 °F - 51.8 °F 94% 29.65 in 6.2 mi WSW 13.8 mph - N/A Rain Light Rain
3:20 PM 53.6 °F - 50.0 °F 88% 29.65 in 6.2 mi WSW 10.4 mph - N/A Rain Light Rain
3:50 PM 53.6 °F - 51.8 °F 94% 29.65 in 6.2 mi SW 11.5 mph - N/A   Mostly Cloudy
4:20 PM 53.6 °F - 51.8 °F 94% 29.65 in 5.6 mi WSW 11.5 mph - N/A Rain Light Rain
4:50 PM 53.6 °F - 50.0 °F 88% 29.65 in 6.2 mi WSW 15.0 mph - N/A Rain Light Rain
5:20 PM 51.8 °F - 48.2 °F 88% 29.65 in 6.2 mi WSW 16.1 mph - N/A Rain Light Rain
5:50 PM 51.8 °F - 48.2 °F 88% 29.62 in 6.2 mi WSW 11.5 mph - N/A   Mostly Cloudy
6:20 PM 51.8 °F - 50.0 °F 94% 29.62 in 6.2 mi WSW 15.0 mph - N/A Rain Light Rain
6:50 PM 51.8 °F - 50.0 °F 94% 29.65 in 6.2 mi WSW 18.4 mph - N/A   Mostly Cloudy
7:20 PM 53.6 °F - 48.2 °F 82% 29.68 in 6.2 mi WSW 17.3 mph - N/A   Mostly Cloudy
7:50 PM 51.8 °F - 48.2 °F 88% 29.68 in 6.2 mi WSW 12.7 mph - N/A   Scattered Clouds
8:20 PM 51.8 °F - 48.2 °F 88% 29.68 in 6.2 mi WSW 11.5 mph - N/A   Partly Cloudy
8:50 PM 51.8 °F - 48.2 °F 88% 29.68 in 6.2 mi WSW 15.0 mph - N/A   Partly Cloudy
9:20 PM 51.8 °F - 48.2 °F 88% 29.71 in - WSW 17.3 mph - N/A   Clear
9:50 PM 51.8 °F - 46.4 °F 82% 29.71 in - WSW 17.3 mph - N/A   Clear
10:20 PM 50.0 °F - 48.2 °F 94% 29.71 in - WSW 18.4 mph - N/A   Clear
10:50 PM 50.0 °F - 46.4 °F 87% 29.74 in - WSW 16.1 mph - N/A   Clear
11:20 PM 50.0 °F - 46.4 °F 87% 29.74 in 6.2 mi WSW 19.6 mph - N/A   Partly Cloudy
11:50 PM 50.0 °F - 46.4 °F 87% 29.74 in - WSW 17.3 mph - N/A   Clear